Dewpoint
53 57 57 57 57 58 58 58 56 51 47 46 46 45 44 44 43 42 41 40 40 39 39 40 40 38 38 38 38 39 39 40
48 50 52 52 53 55 55 55 51 45 45 43 43 43 44 45 43 40 39 39 38 38 38 38 39 38 39 40 40 40 41 42
47 48 49 52 50 48 43 43 43 43 43 46 47 47 46 44 39 38 38 38 38 37 37 38 39 39 40 40 41 40 41 41
46 47 46 44 41 41 41 41 42 43 44 44 44 44 45 42 39 37 38 38 38 39 39 39 40 41 40 41 40 39 38 39
43 41 40 40 40 40 39 40 41 42 42 41 41 40 41 42 39 37 38 38 38 39 39 39 40 39 39 41 40 39 38 37
41 40 40 40 41 41 41 41 42 42 42 42 43 41 41 39 37 36 37 38 38 38 37 37 36 37 37 37 38 37 38 37
42 42 42 42 42 42 42 43 43 43 43 42 41 40 38 36 35 35 35 38 37 36 37 37 37 37 36 36 37 36 36 36
42 42 42 42 42 42 41 41 42 41 41 39 39 38 37 36 35 35 36 37 36 33 37 37 37 37 36 37 36 36 36 35
40 40 40 40 41 40 40 39 38 40 39 38 38 38 37 36 36 36 35 36 34 34 35 37 37 37 36 37 37 35 35 34
39 40 40 39 39 39 39 38 39 38 38 38 38 38 38 36 36 36 36 35 34 33 34 35 34 35 33 35 34 31 32 33
37 38 39 40 38 37 36 36 36 37 38 37 36 37 38 38 36 36 36 34 34 33 33 33 31 28 27 27 26 27 30 25
36 36 37 36 34 33 32 33 33 36 36 36 36 34 34 35 36 35 34 33 34 33 33 33 25 24 23 23 23 26 24 23
36 35 35 34 32 31 31 29 27 31 34 34 32 33 34 33 34 34 34 33 33 32 30 28 25 23 23 22 22 24 22 21
35 35 33 32 32 31 27 27 30 33 29 27 29 33 35 35 35 34 32 32 33 33 34 30 24 23 23 23 23 22 21 22
33 33 32 31 31 28 23 23 26 26 24 28 31 33 33 32 32 32 32 35 35 34 34 27 25 24 24 22 21 22 22 22
32 32 32 32 28 22 21 21 21 24 24 30 32 33 34 35 34 35 36 37 36 34 30 23 24 24 22 22 23 23 23 23
31 31 31 27 21 18 18 18 19 22 28 31 34 34 35 34 35 36 36 36 29 31 25 24 23 22 24 26 29 27 25 24
30 31 27 22 19 18 16 17 20 21 29 31 32 32 32 32 34 35 35 34 34 26 24 24 24 23 27 28 26 26 24 24
29 23 20 20 18 16 17 18 19 21 30 31 32 32 32 32 34 33 31 29 28 24 25 24 24 25 23 21 25 22 20 21
Wind_Speed
11 17 19 19 20 20 13 7 7 6 9 14 16 16 16 14 14 13 12 13 14 15 15 15 14 12 16 17 15 12 12 12
16 19 20 23 19 15 8 4 1 5 8 12 15 13 9 13 11 12 13 13 13 12 11 10 8 10 10 9 5 11 9 10
20 20 22 21 16 12 11 12 14 12 12 8 7 8 7 10 9 10 9 10 8 9 8 9 12 12 13 12 10 7 4 9
17 18 20 19 17 17 15 15 16 15 16 13 7 7 6 4 5 7 9 11 12 13 14 13 12 10 9 8 11 10 9 5
14 17 17 18 15 12 12 10 11 9 8 6 6 6 6 2 5 4 7 10 11 11 11 9 8 7 8 6 7 5 6 7
18 16 16 13 9 6 4 6 5 5 5 4 2 5 8 9 7 5 6 6 7 7 8 6 6 6 5 5 4 5 4 3
14 12 11 11 9 9 8 10 8 6 7 7 8 10 8 5 2 2 3 1 3 3 4 5 4 1 3 3 3 4 5 6
9 10 9 12 11 10 11 11 11 10 11 10 9 9 8 5 6 7 8 6 5 5 3 4 3 3 3 3 5 6 6 6
12 13 16 17 14 12 10 10 7 5 6 6 6 7 7 10 12 10 10 10 5 0 3 4 5 6 7 5 4 7 8 8
17 15 15 14 12 9 7 5 2 3 4 4 7 9 11 12 11 9 9 6 6 7 4 4 5 6 6 6 5 6 6 5
15 14 13 10 8 4 5 5 4 3 5 7 8 8 9 11 10 11 9 7 5 4 4 11 10 6 5 4 4 4 3 2
12 11 9 6 4 3 3 3 6 5 6 6 8 10 12 12 11 8 5 6 8 8 10 11 8 9 6 5 6 5 3 4
9 8 6 3 2 1 3 6 7 6 5 5 9 9 10 9 7 6 7 11 8 5 7 10 12 10 7 7 7 3 2 7
6 5 4 2 3 1 7 7 7 6 7 7 8 10 10 9 10 11 11 10 7 6 9 13 12 9 8 5 3 1 3 8
4 4 2 2 3 6 5 5 5 4 6 6 7 7 8 10 10 10 12 8 10 12 13 11 7 8 6 1 2 5 9 10
2 1 2 6 5 5 3 3 3 2 3 2 3 5 8 10 12 14 13 8 10 11 8 6 5 5 3 2 6 10 11 13
3 2 5 3 6 3 1 4 6 3 2 4 5 7 10 12 13 12 11 6 3 8 9 5 3 3 3 6 10 10 11 13
3 4 2 6 5 3 4 8 7 6 4 5 6 9 10 12 12 11 8 8 5 7 1 5 5 7 7 7 10 8 11 12
3 4 6 7 3 4 7 8 8 5 4 6 9 10 12 13 11 10 9 3 5 2 5 5 5 5 9 12 8 8 10 11
Wind_Direction
65 88 86 90 96 95 95 85 49 46 89 81 79 70 73 73 72 66 65 66 62 60 53 44 34 22 11 2 352 343 334 332
76 83 93 91 83 86 85 75 112 116 82 76 72 71 72 57 59 72 73 75 69 68 62 49 36 31 11 5 346 344 347 349
85 92 90 92 103 104 100 108 120 111 97 108 115 121 102 102 96 78 78 82 79 70 65 44 35 23 18 14 14 350 331 7
105 110 115 123 124 128 126 128 126 127 126 122 109 106 116 110 99 68 50 53 45 42 35 37 38 46 30 7 6 7 344 339
136 131 130 132 140 149 144 139 132 150 156 167 178 196 195 103 105 87 74 63 67 67 71 61 59 51 41 28 20 17 6 355
149 147 143 148 138 114 69 49 42 38 29 38 69 74 88 102 115 117 107 121 114 95 84 91 72 53 40 39 32 28 26 354
150 152 135 108 83 70 74 87 74 90 78 71 93 113 119 119 163 215 224 142 107 112 137 115 109 73 2 339 327 323 320 308
124 116 109 85 73 96 93 91 88 101 102 106 120 138 161 187 219 236 236 229 216 216 183 177 206 228 256 270 299 311 308 304
109 109 100 91 92 95 93 85 84 96 117 138 160 178 204 221 229 230 235 225 216 231 277 249 291 296 290 283 285 302 311 310
105 97 93 94 89 91 91 84 80 197 183 191 218 224 231 239 248 241 233 213 218 219 219 271 268 258 261 261 270 295 295 298
106 102 108 109 96 66 28 15 350 307 242 254 266 286 298 287 269 249 224 229 246 242 259 255 239 234 230 233 254 261 240 253
119 111 123 127 97 76 27 14 7 337 271 328 328 316 315 296 263 250 260 262 246 249 273 271 249 236 232 231 261 217 242 291
126 118 98 130 180 97 55 45 31 15 6 12 360 336 317 289 295 297 273 264 258 266 309 306 267 250 246 251 259 229 301 308
124 146 163 177 202 82 55 56 55 60 38 23 2 357 357 334 304 285 263 231 239 316 309 287 270 272 281 269 226 276 280 286
150 157 179 297 11 59 81 66 48 43 21 12 13 9 351 326 309 273 260 259 292 307 288 275 296 297 288 215 287 287 290 293
141 144 316 7 61 107 81 43 3 335 342 7 345 333 316 305 300 295 289 282 309 299 305 326 325 309 235 292 301 301 300 300
221 322 355 29 123 114 339 299 292 283 279 303 304 317 309 310 303 301 295 289 290 350 322 307 59 8 317 315 328 321 310 304
256 312 251 160 167 201 282 288 308 301 263 297 311 301 303 310 310 308 308 297 285 277 270 82 48 23 2 2 349 343 328 321
246 199 172 184 205 281 299 320 310 293 295 291 287 299 309 316 324 320 312 283 305 159 103 61 43 34 17 352 352 345 327 312